Location: Unnamed
(33.0780°N, 97.0417°W)
Time: 21:09:39
(UTC-05:00)

Hubble Space Telescope - Pass Details

Date: 08 April 2021
Orbit: 535 x 539 km, 28.5° (Epoch: 25 July)

Event Time Altitude Azimuth Distance (km) Brightness Sun altitude
Exits shadow 05:31:28 43° 192° (SSW) 752 1.2 -19.9°
Maximum altitude 05:31:45 44° 180° (S) 744 1.2 -19.9°
Drops below altitude 10° 05:35:40 10° 108° (ESE) 1,778 4.1 -19.1°
Sets 05:37:59 0° 101° (ESE) 2,669 5.3 -18.7°
